Powrót do katalogu

STARLINK-11254

AktywnyŁącznośćVLEO
NORAD 60731·PAYLOAD·🇺🇸 United States

Wystrzelony Aug 28, 2024 z Cape Canaveral Space Force Station

Loading…

Następne Przeloty (najbliższe 24 godziny)

TLE

ŚwieżeSource: CelesTrak SupGP

Epoka: Sep 14, 2026, 21:26 UTC

1 60731C 24152M   26257.89354167  .00066916  00000+0  55118-3 0  2573
2 60731  53.1573 263.2386 0001034 101.3338 339.0769 15.69677654    14

Śledź STARLINK-11254 w czasie rzeczywistym z AllMySat

Download on the App Store